Regional Weather Roundup
Issued by NWS

Home | Current Version | Previous Version | Graphics & Text | Print | Product List | Glossary On
Versions: 1 2 3 4 5 6 7 8 9 10 11 12 13 14 15 16 17 18 19 20 21 22 23 24 25 26 27 28 29 30 31 32 33 34 35 36 37 38 39 40 41 42 43 44 45 46 47 48 49 50
000
ASUS43 KLOT 020110
RWRIL

ILLINOIS REGIONAL WEATHER ROUNDUP
NATIONAL WEATHER SERVICE CHICAGO/ROMEOVILLE IL
800 PM CDT WED OCT 01 2014

NOTE: "FAIR" INDICATES FEW OR NO CLOUDS BELOW 12,000 FEET WITH NO
SIGNIFICANT WEATHER AND/OR OBSTRUCTIONS TO VISIBILITY.

* THESE STATIONS ARE NOT UNDER NWS QUALITY CONTROL. THEY ALSO MAY NOT
  REPORT WEATHER SUCH AS PRECIPITATION OR FOG.

ILZ001-002-007-009-015-016-024-020200-
NORTHWEST ILLINOIS

CITY           SKY/WX    TMP DP  RH WIND       PRES   REMARKS
MOLINE         MOCLDY    65  60  84 CALM      29.82S
SAVANNA*       MOCLDY    66  58  74 CALM      29.83S
$$

ILZ003-004-008-010-011-017-018-020200-
NORTH CENTRAL ILLINOIS

CITY           SKY/WX    TMP DP  RH WIND       PRES   REMARKS
ROCKFORD       CLOUDY    67  55  65 E10       29.87S
FREEPORT*      CLOUDY    65  56  73 E5        29.87R
ROCHELLE*      MOCLDY    67  56  65 SE7       29.86S
DE KALB*       MOCLDY    62  55  76 E7        29.89R
PERU*          CLOUDY    72  59  63 E6        29.85R
$$

ILZ005-006-012>014-019>023-020200-
NORTHEAST ILLINOIS

CITY           SKY/WX    TMP DP  RH WIND       PRES   REMARKS
CHICAGO-OHARE  MOCLDY    66  53  63 SE13      29.90S
CHICAGO-MIDWAY MOCLDY    69  54  58 SE8       29.90F
AURORA         MOCLDY    68  54  60 E13       29.88S
LANSING*       MOCLDY    64  53  66 SE10      29.91F
JOLIET*        CLOUDY    67  55  65 SE10G18   29.89S
WAUKEGAN       MOCLDY    60  55  83 SE7       29.91
DUPAGE AIRPORT MOCLDY    66  54  65 SE10      29.88S
WHEELING       MOCLDY    65  55  70 SE6       29.92F
MORRIS*        MOCLDY    68  58  70 SE10      29.86S
ROMEOVILLE*    MOCLDY    66  53  62 SE9       29.89S
NORTHERLY ISL    N/A     64  56  75 E8          N/A
$$

LMZ740>746-020200-
SOUTHERN LAKE MICHIGAN

STATION/POSITION SKY/WX   TEMP    WIND        PRES    VSBY  WAVE
                          AIR SEA DIR/SP/G                  HT/PER
                          (F)     (DEG/KT/KT) (MB)    (MI)  (FT/S)
SOUTHERN BUOY              63 62  130/ 12/ 16 1014.1R         2/ 3
WAUKEGAN HARBOR            62     120/ 12/ 14   N/A
HARRISON CRIB              65     120/ 15/ 17   N/A
CALUMET HARBOR             67     110/  9/ 14 1011.8F
MICHIGAN CITY              64     120/  9/ 12   N/A
$$

ILZ025>027-034>036-040-047-049-050-058-095>099-020200-
WEST-CENTRAL ILLINOIS

CITY           SKY/WX    TMP DP  RH WIND       PRES   REMARKS
QUINCY         CLOUDY    65  63  93 SE9       29.80F
GALESBURG*     MOCLDY    66  64  92 S9G17     29.81S
MACOMB*        MOCLDY    66  65  96 SE12      29.84R
JACKSONVILLE*  LGT RAIN  69  67  94 NE6       29.88F
PITTSFIELD*    CLOUDY    67  64  92 E8        29.83F
$$

ILZ028>032-037-038-041>044-048-051>054-059>061-020200-
CENTRAL ILLINOIS

CITY           SKY/WX    TMP DP  RH WIND       PRES   REMARKS
PONTIAC        CLOUDY    73  59  60 SE6       29.87R
BLOOMINGTON    LGT RAIN  71  62  73 S7          N/A
DECATUR        CLOUDY    74  60  61 SE7       29.88R
PEORIA         LGT RAIN  69  64  84 S8        29.86S
LACON*         LGT RAIN  69  62  79 S7        29.84R
LINCOLN*       LGT RAIN  71  64  79 NW3       29.84R
SPRINGFIELD    LGT RAIN  70  66  87 N3        29.86R
TAYLORVILLE    LGT RAIN  72  63  73 SE7       29.86R
$$

ILZ033-039-045-046-055>057-062-063-020200-
EAST-CENTRAL ILLINOIS

CITY           SKY/WX    TMP DP  RH WIND       PRES   REMARKS
DANVILLE*      CLOUDY    69  60  72 SE6       29.89R
RANTOUL*       CLOUDY    73  58  60 SE10      29.91R
MATTOON        CLOUDY    70  57  63 SE6       29.88S
PARIS*         MOCLDY    71  63  76 SE5       29.92R
$$

ILZ079-100>102-020200-
SOUTHWEST ILLINOIS

CITY           SKY/WX    TMP DP  RH WIND       PRES   REMARKS
ALTON          CLOUDY    77  59  53 E7        29.84R
BELLEVILLE     CLOUDY    78  65  62 E7        29.82S HX  80
CAHOKIA*       CLOUDY    79  64  60 SE6       29.82R HX  81
SPARTA*        MOCLDY    77  63  62 SE6       29.86S
$$

ILZ064>066-069>071-074>076-080>082-084>086-088>090-092>094-020200-
SOUTH-CENTRAL ILLINOIS

CITY           SKY/WX    TMP DP  RH WIND       PRES   REMARKS
CARBONDALE     PTCLDY    74  62  66 S7        29.87R
CAIRO*         CLEAR     74  63  69 SE3       29.89R
EFFINGHAM*     MOCLDY    69  58  66 SE6       29.88S
MARION         PTCLDY    77  63  61 SE6       29.88S
CENTRALIA*     MOCLDY    75  60  60 SE6       29.87S
SALEM*         MOCLDY    76  65  66 SE6       29.87S
METROPOLIS*    CLEAR     74  62  65 CALM      29.89R
$$

ILZ067-068-072-073-078-083-087-091-020200-
SOUTHEAST ILLINOIS

CITY           SKY/WX    TMP DP  RH WIND       PRES   REMARKS
LAWRENCEVILLE  PTCLDY    69  58  67 SE7       29.91R HAZE
FLORA*         PTCLDY    69  59  70 SE6       29.89S
FAIRFIELD*     PTCLDY    72  63  73 SE3       29.88S
HARRISBURG*    CLEAR     71  61  69 SE3       29.91R
ROBINSON*      PTCLDY    68  60  75 SE6       29.91R
CARMI*         PTCLDY    70  61  73 CALM      29.90R
$$

ABBREVIATIONS USED IN REMARKS
   TC - TEMPERATURE IN CELSIUS
  WCI - WIND CHILL INDEX
   HX - HEAT INDEX
  VSB - VISIBILITY
$$




USA.gov is the U.S. government's official web portal to all federal, state and local government web resources and services.